[[{"header":{"parameterUnit":"m.s-1","parameterCategory":1,"la1":30.2991,"la2":30.254,"lo1":-89.0895,"lo2":-89.0444,"dy":0.0017,"dx":0.0017,"nx":28,"ny":28,"refTime":"2024-10-14T03:00:00:Z","depth":0,"parameterNumber":2,"parameterNumberName":"U-component_of_WINDS"},"data":[0,0,0,0,0,0,0,0,0,0,0,0,0,0,0,0,0,0,0,0,0,0,0,0,0,0,0,0,0,0,0,0,0,0,0,0,0,0,0,0,0,0,0,0,0,0,0,0,0,0,0,0,0,0,0,0,0,0,-3.4249,-3.425,0,-3.4334,-3.4335,-3.4336,-3.4284,-3.4281,-3.4279,-3.4276,-3.436,-3.4364,-3.4369,0,0,0,0,0,0,0,0,0,0,0,0,0,-3.4035,-3.4039,-3.4248,-3.425,-3.4251,-3.4334,-3.4336,-3.4337,-3.4284,-3.4281,-3.4278,-3.4275,-3.4358,-3.4364,-3.4369,0,0,0,0,0,0,0,0,0,0,0,0,0,-3.4125,-3.404,-3.4248,-3.4235,-3.4234,-3.4334,-3.4336,-3.4337,-3.4285,-3.4281,-3.4277,-3.4274,-3.4356,-3.4363,-3.437,-3.4486,0,0,-3.4391,-3.4393,0,0,0,0,0,0,0,0,-3.412,-3.4133,-3.4236,-3.4236,-3.4236,-3.4295,-3.4291,-3.4387,-3.4286,-3.4266,-3.4276,-3.4272,-3.4341,-3.4349,-3.4373,-3.449,-3.4494,-3.4391,-3.4395,-3.4398,-3.44,0,0,0,0,0,0,0,-3.4113,-3.4129,-3.4282,-3.4237,-3.4237,-3.4223,-3.4232,-3.4309,-3.4323,-3.4267,-3.4263,-3.4275,-3.434,-3.4366,-3.4374,-3.4495,-3.4391,-3.4397,-3.4401,-3.4404,-3.4711,-3.4715,0,0,0,0,0,0,-3.4109,-3.4124,-3.428,-3.4285,-3.4167,-3.423,-3.4239,-3.4279,-3.4322,-3.4325,-3.4278,-3.4272,-3.4357,-3.4366,-3.4377,-3.4515,-3.4398,-3.4404,-3.4408,-3.4707,-3.4712,-3.4716,0,0,0,0,0,0,-3.4105,-3.4123,-3.4276,-3.4203,-3.4222,-3.4237,-3.4283,-3.4283,-3.4309,-3.433,-3.4332,-3.4302,-3.4354,-3.4367,-3.446,-3.4517,-3.4408,-3.4414,-3.4702,-3.4709,-3.4714,-3.4793,0,0,0,0,0,0,-3.4099,-3.4122,-3.4167,-3.4205,-3.4226,-3.4359,-3.4286,-3.4287,-3.4322,-3.4315,-3.4354,-3.4356,-3.4352,-3.445,-3.4466,-3.4525,-3.4419,-3.4697,-3.4705,-3.4712,-3.4785,-3.4801,-3.4814,0,0,0,0,0,-3.4091,-3.4185,-3.417,-3.4189,-3.4283,-3.4362,-3.4374,-3.4369,-3.4327,-3.4372,-3.4385,-3.4355,-3.4509,-3.446,-3.4478,-3.4539,-3.4693,-3.4703,-3.4712,-3.4779,-3.4798,-3.4814,0,0,0,0,0,0,-3.4152,-3.419,-3.4173,-3.4283,-3.432,-3.4353,-3.4409,-3.4389,-3.4438,-3.4429,-3.4419,-3.4428,-3.4524,-3.4541,-3.4486,-3.4654,-3.4594,-3.4608,-3.4639,-3.4657,-3.4672,-3.4664,-3.4425,0,0,0,0,0,-3.4179,-3.4241,-3.427,-3.4364,-3.4384,-3.4394,-3.4428,-3.4421,-3.4458,-3.4473,-3.4493,-3.4529,-3.4585,-3.4623,-3.4676,-3.4788,-3.4795,-3.4839,-3.4854,-3.4866,-3.4877,-3.4936,-3.4955,-3.4747,-3.4747,-3.4746,0,0,-3.4233,-3.4261,-3.4301,-3.4377,-3.4405,-3.4468,-3.4407,-3.4477,-3.4523,-3.4483,-3.4571,-3.4588,-3.4627,-3.473,-3.4776,-3.4747,-3.4936,-3.4878,-3.4887,-3.4891,-3.4947,-3.4967,-3.4985,-3.4753,-3.4752,-3.4751,0,0,-3.4364,-3.4393,-3.4474,-3.4504,-3.4548,-3.4554,-3.4574,-3.4611,-3.462,-3.4709,-3.4681,-3.4735,-3.4833,-3.4862,-3.4889,-3.5034,-3.5007,-3.5051,-3.5127,-3.5185,-3.5201,-3.5216,-3.5265,-3.5283,-3.5063,-3.5063,-3.5063,0,-3.4426,-3.4522,-3.4517,-3.459,-3.4623,-3.4592,-3.4673,-3.4702,-3.476,-3.4783,-3.475,-3.4872,-3.4897,-3.5005,-3.5041,-3.5065,-3.5085,-3.5046,-3.52,-3.5214,-3.5228,-3.5275,-3.5293,-3.5068,-3.5067,-3.5067,-3.5066,0,-3.4594,-3.4661,-3.4721,-3.478,-3.4821,-3.4897,-3.4903,-3.4944,-3.4934,-3.4944,-3.5034,-3.5063,-3.5121,-3.5147,-3.5137,-3.5254,-3.5234,-3.5201,-3.5141,-3.5252,-3.5296,-3.5315,-3.5075,-3.5073,-3.5072,-3.507,0,0,-3.4763,-3.4821,-3.4843,-3.4869,-3.4916,-3.4967,-3.5042,-3.51,-3.5135,-3.5177,-3.5238,-3.5322,-3.5292,-3.5323,-3.5317,-3.5368,-3.5479,-3.5328,-3.5329,-3.5353,-3.5607,-3.563,-3.5651,-3.5463,-3.5466,-3.5469,-3.5603,0,-3.4896,-3.5028,-3.5027,-3.5148,-3.5209,-3.5181,-3.5246,-3.5281,-3.5293,-3.5345,-3.5357,-3.5416,-3.5373,-3.5391,-3.5441,-3.5455,-3.5529,-3.5445,-3.5517,-3.5519,-3.5505,-3.5674,-3.5698,-3.5823,-3.562,-3.5623,-3.5625,0,-3.5068,-3.5117,-3.5245,-3.5283,-3.5309,-3.5367,-3.542,-3.5472,-3.5511,-3.5515,-3.5552,-3.5537,-3.5611,-3.5552,-3.5652,-3.5596,-3.5625,-3.5636,-3.5641,-3.5645,-3.5577,-3.568,-3.5863,-3.5881,-3.5653,-3.5651,-3.5649,0,-3.5175,-3.5274,-3.5363,-3.5387,-3.5434,-3.5476,-3.5497,-3.5533,-3.5568,-3.5615,-3.5637,-3.5692,-3.5721,-3.5763,-3.5763,-3.5719,-3.5864,-3.5805,-3.5868,-3.5868,-3.5897,-3.5895,-3.6085,-3.5921,-3.5921,-3.592,-3.592,0,-3.5322,-3.54,-3.5412,-3.5467,-3.5554,-3.5552,-3.5637,-3.5655,-3.5687,-3.5743,-3.5723,-3.5776,-3.5774,-3.5828,-3.5829,-3.5911,-3.5925,-3.5929,-3.5927,-3.5929,-3.5928,-3.5946,-3.5936,-3.5925,-3.5924,-3.5923,-3.5922,0,-3.5455,-3.5467,-3.5562,-3.56,-3.5612,-3.5674,-3.5706,-3.5757,-3.5768,-3.5839,-3.5855,-3.5871,-3.5933,-3.5938,-3.6009,-3.601,-3.6109,-3.61,-3.6096,-3.6093,-3.6156,-3.6149,-3.6361,-3.6388,-3.621,-3.6212,-3.6213,0,-3.5547,-3.5607,-3.5653,-3.569,-3.5714,-3.5774,-3.5811,-3.5812,-3.585,-3.59,-3.5945,-3.6005,-3.6053,-3.6152,-3.6169,-3.6223,-3.6213,-3.6284,-3.6221,-3.622,-3.6211,-3.6206,-3.6211,-3.6295,-3.6297,-3.6299,-3.63,0,-3.5706,-3.571,-3.5764,-3.5821,-3.5866,-3.591,-3.5952,-3.5983,-3.5989,-3.6033,-3.6097,-3.6135,-3.6209,-3.6268,-3.6321,-3.6341,-3.6321,-3.6321,-3.6338,-3.6338,-3.6333,-3.6334,-3.6127,-3.6315,-3.6313,-3.6312,-3.6311,-3.6311,-3.582,-3.5872,-3.5912,-3.5973,-3.6006,-3.6045,-3.6095,-3.6113,-3.6167,-3.6228,-3.6226,-3.6296,-3.6333,-3.6403,-3.6428,-3.6481,-3.6457,-3.6482,-3.6488,-3.6494,-3.6499,-3.6327,-3.6491,-3.6491,-3.649,-3.649,-3.649,0,-3.5976,-3.6002,-3.6058,-3.6118,-3.6166,-3.6147,-3.6192,-3.6233,-3.6295,-3.6333,-3.6382,-3.6455,-3.6513,-3.6535,-3.6591,-3.663,-3.6622,-3.6644,-3.6639,-3.6644,-3.6519,-3.6497,-3.6649,-3.6649,-3.6649,-3.6649,-3.6649,-3.6649,-3.6063,-3.6149,-3.6158,-3.626,-3.6284,-3.6354,-3.6381,-3.6417,-3.6447,-3.6531,-3.6579,-3.6595,-3.6626,-3.6684,-3.6736,-3.6741,-3.6761,-3.6787,-3.6788,-3.6669,-3.6653,-3.6638,-3.6617,-3.6792,-3.6792,-3.6908,-3.6909,-3.691]},{"header":{"parameterUnit":"m.s-1","parameterCategory":1,"la1":30.2991,"la2":30.254,"lo1":-89.0895,"lo2":-89.0444,"dy":0.0017,"dx":0.0017,"nx":28,"ny":28,"refTime":"2024-10-14T03:00:00:Z","depth":0,"parameterNumber":3,"parameterNumberName":"V-component_of_WINDS"},"data":[0,0,0,0,0,0,0,0,0,0,0,0,0,0,0,0,0,0,0,0,0,0,0,0,0,0,0,0,0,0,0,0,0,0,0,0,0,0,0,0,0,0,0,0,0,0,0,0,0,0,0,0,0,0,0,0,0,0,-2.2107,-2.2108,0,-2.2204,-2.2205,-2.2207,-2.2229,-2.2229,-2.2228,-2.2227,-2.2324,-2.2327,-2.233,0,0,0,0,0,0,0,0,0,0,0,0,0,-2.1936,-2.1939,-2.2107,-2.2108,-2.2109,-2.2204,-2.2206,-2.2207,-2.2229,-2.2228,-2.2228,-2.2227,-2.2323,-2.2327,-2.2331,0,0,0,0,0,0,0,0,0,0,0,0,0,-2.2019,-2.194,-2.2107,-2.2132,-2.2135,-2.2204,-2.2206,-2.2207,-2.2229,-2.2228,-2.2227,-2.2227,-2.2322,-2.2326,-2.2331,-2.238,0,0,-2.2346,-2.2348,0,0,0,0,0,0,0,0,-2.2015,-2.2026,-2.2127,-2.213,-2.2134,-2.2204,-2.2181,-2.2265,-2.223,-2.2194,-2.2227,-2.2226,-2.2285,-2.2292,-2.2313,-2.2385,-2.2389,-2.2346,-2.2349,-2.2351,-2.2352,0,0,0,0,0,0,0,-2.2009,-2.2022,-2.2145,-2.2129,-2.2133,-2.2137,-2.2148,-2.2197,-2.2243,-2.2197,-2.2199,-2.221,-2.2286,-2.2308,-2.2315,-2.239,-2.2346,-2.235,-2.2353,-2.2355,-2.2506,-2.2507,0,0,0,0,0,0,-2.1999,-2.2017,-2.2142,-2.2148,-2.2071,-2.2141,-2.2153,-2.2182,-2.2243,-2.2251,-2.2211,-2.2211,-2.23,-2.2309,-2.2319,-2.2379,-2.2351,-2.2355,-2.2358,-2.2505,-2.2506,-2.2507,0,0,0,0,0,0,-2.1995,-2.201,-2.2138,-2.2083,-2.21,-2.2145,-2.2178,-2.2185,-2.2207,-2.2254,-2.2262,-2.2225,-2.23,-2.2312,-2.2365,-2.2383,-2.2358,-2.2362,-2.2503,-2.2505,-2.2507,-2.2502,0,0,0,0,0,0,-2.199,-2.2009,-2.2029,-2.2083,-2.2103,-2.2184,-2.2179,-2.2187,-2.2215,-2.2216,-2.2269,-2.2277,-2.23,-2.2357,-2.2369,-2.2389,-2.2366,-2.2502,-2.2504,-2.2506,-2.2501,-2.2503,-2.2505,0,0,0,0,0,-2.1984,-2.2024,-2.203,-2.2045,-2.2129,-2.2185,-2.2196,-2.2223,-2.2217,-2.2237,-2.2266,-2.2275,-2.2379,-2.2363,-2.2376,-2.2398,-2.2501,-2.2504,-2.2506,-2.2499,-2.2503,-2.2505,0,0,0,0,0,0,-2.197,-2.2031,-2.2039,-2.2098,-2.2136,-2.2189,-2.2215,-2.2226,-2.2266,-2.2265,-2.2296,-2.2308,-2.2358,-2.2383,-2.2364,-2.2448,-2.244,-2.2445,-2.243,-2.2433,-2.2436,-2.2429,-2.237,0,0,0,0,0,-2.1974,-2.2015,-2.2066,-2.2113,-2.2132,-2.217,-2.2195,-2.2213,-2.2253,-2.227,-2.2303,-2.2342,-2.2383,-2.2409,-2.245,-2.2504,-2.2515,-2.2525,-2.2527,-2.2529,-2.2534,-2.2562,-2.2567,-2.2516,-2.2516,-2.2516,0,0,-2.1982,-2.202,-2.2045,-2.2111,-2.2143,-2.2183,-2.2184,-2.2227,-2.2257,-2.2276,-2.2328,-2.2354,-2.2398,-2.2451,-2.2476,-2.2474,-2.255,-2.2533,-2.2534,-2.2537,-2.2565,-2.257,-2.2575,-2.2517,-2.2517,-2.2517,0,0,-2.2017,-2.2051,-2.2093,-2.2125,-2.2173,-2.2198,-2.2208,-2.2259,-2.2277,-2.233,-2.2344,-2.2379,-2.245,-2.2481,-2.2506,-2.255,-2.2559,-2.2562,-2.2575,-2.2603,-2.2607,-2.261,-2.2625,-2.2631,-2.2566,-2.2566,-2.2566,0,-2.2021,-2.2085,-2.2113,-2.2156,-2.2184,-2.2203,-2.2244,-2.2273,-2.2332,-2.235,-2.2346,-2.2434,-2.2465,-2.2525,-2.2536,-2.2555,-2.2566,-2.2557,-2.2604,-2.2608,-2.2612,-2.2626,-2.2632,-2.2566,-2.2566,-2.2566,-2.2566,0,-2.2086,-2.213,-2.2157,-2.2214,-2.2245,-2.2287,-2.232,-2.2347,-2.2361,-2.2386,-2.2438,-2.2476,-2.2524,-2.2539,-2.2553,-2.26,-2.2597,-2.2598,-2.2591,-2.2616,-2.2631,-2.2636,-2.2567,-2.2567,-2.2566,-2.2566,0,0,-2.2117,-2.2188,-2.2198,-2.2223,-2.2276,-2.231,-2.2351,-2.2399,-2.2421,-2.246,-2.2495,-2.2553,-2.2554,-2.2582,-2.2599,-2.2623,-2.2655,-2.2621,-2.2623,-2.2626,-2.2707,-2.2706,-2.2712,-2.266,-2.2662,-2.2663,-2.2703,0,-2.2159,-2.2236,-2.2262,-2.2324,-2.2364,-2.2381,-2.2417,-2.2453,-2.2476,-2.2512,-2.2537,-2.2578,-2.2576,-2.2593,-2.2618,-2.2646,-2.2671,-2.2643,-2.2692,-2.2693,-2.2681,-2.272,-2.272,-2.2757,-2.2709,-2.271,-2.2711,0,-2.2219,-2.2259,-2.2326,-2.2373,-2.2391,-2.2423,-2.2467,-2.2502,-2.2541,-2.2557,-2.2587,-2.2602,-2.2644,-2.2633,-2.2691,-2.2671,-2.2692,-2.2708,-2.271,-2.2716,-2.2704,-2.2726,-2.2769,-2.2774,-2.272,-2.2719,-2.2719,0,-2.2234,-2.2305,-2.2354,-2.2375,-2.2431,-2.2453,-2.2477,-2.2516,-2.2542,-2.258,-2.2597,-2.2639,-2.2662,-2.2694,-2.2719,-2.2709,-2.2774,-2.2766,-2.2787,-2.2786,-2.28,-2.2799,-2.2846,-2.2814,-2.2814,-2.2813,-2.2813,0,-2.2279,-2.2319,-2.2361,-2.2392,-2.2436,-2.2464,-2.2507,-2.2531,-2.2566,-2.2599,-2.2616,-2.2647,-2.2679,-2.2713,-2.2733,-2.2777,-2.2787,-2.28,-2.2804,-2.2798,-2.2797,-2.2813,-2.2811,-2.2815,-2.2815,-2.2814,-2.2814,0,-2.2304,-2.2334,-2.2389,-2.2437,-2.245,-2.248,-2.2521,-2.2549,-2.2573,-2.2615,-2.2627,-2.2663,-2.2704,-2.2733,-2.2786,-2.2799,-2.2846,-2.285,-2.2833,-2.2835,-2.2854,-2.2852,-2.2914,-2.2923,-2.2884,-2.2884,-2.2885,0,-2.2331,-2.2362,-2.2413,-2.2437,-2.2462,-2.2501,-2.2527,-2.2555,-2.2581,-2.2628,-2.265,-2.2693,-2.2729,-2.2794,-2.2824,-2.2864,-2.2869,-2.2888,-2.2875,-2.2868,-2.2869,-2.2867,-2.2869,-2.289,-2.289,-2.2891,-2.2891,0,-2.2374,-2.2387,-2.2426,-2.2469,-2.25,-2.2535,-2.257,-2.2588,-2.2622,-2.265,-2.2693,-2.2721,-2.2774,-2.2816,-2.2858,-2.2881,-2.2891,-2.2894,-2.2901,-2.2896,-2.2884,-2.289,-2.2838,-2.2893,-2.2893,-2.2893,-2.2893,-2.2892,-2.2401,-2.2429,-2.2469,-2.2511,-2.254,-2.2571,-2.26,-2.2627,-2.2663,-2.271,-2.2723,-2.2767,-2.2804,-2.2862,-2.2885,-2.2919,-2.2918,-2.2928,-2.293,-2.2932,-2.2932,-2.2878,-2.2927,-2.2927,-2.2927,-2.2927,-2.2927,0,-2.2445,-2.2471,-2.2509,-2.2558,-2.259,-2.2596,-2.2635,-2.2661,-2.2699,-2.2733,-2.2768,-2.2816,-2.2855,-2.2888,-2.2928,-2.2949,-2.2954,-2.2959,-2.2958,-2.2962,-2.2932,-2.2921,-2.2954,-2.2954,-2.2954,-2.2954,-2.2954,-2.2954,-2.2472,-2.2519,-2.2537,-2.2597,-2.2623,-2.2667,-2.2688,-2.2716,-2.2743,-2.2797,-2.283,-2.2851,-2.2884,-2.2926,-2.2962,-2.2971,-2.2985,-2.2988,-2.2997,-2.2968,-2.2965,-2.2962,-2.2953,-2.2991,-2.2991,-2.3025,-2.3025,-2.3026]}]]